Window Rock, AZ

5:46 PM MST on November 12, 2019 (GMT -0700)
Window Rock

Weather History for KRQE - October, 2019

Change the Weather History Date:

Monday, October 21, 2019

  Actual Average Record
Temperature  
Mean Temperature 40 °F -  
Max Temperature 61 °F 64 °F 78 °F (1988)
Min Temperature 19 °F 30 °F 16 °F (1976)
Degree Days  
Heating Degree Days 26    
Moisture  
Dew Point 5 °F    
Average Humidity 27    
Maximum Humidity 46    
Minimum Humidity 12    
Precipitation  
Precipitation 0.00 in - - ()
Sea Level Pressure  
Sea Level Pressure 30.12 in    
Wind  
Wind Speed 3 mph (WNW)    
Max Wind Speed 14 mph    
Max Gust Speed 22 mph    
Visibility 10 miles    
Events Rain    
Averages and records for this station are not official NWS values.
T = Trace of Precipitation, MM = Missing Value Source: NWS Daily Summary

Daily Weather History Graph

Daily Weather History Graph

Search for Another Location

Airport or City:

Astronomy

Oct. 21, 2019 Rise Set
Actual Time 7:27 AM MDT 6:33 PM MDT
Civil Twilight 7:01 AM MDT 6:59 PM MDT
Nautical Twilight 6:32 AM MDT 7:28 PM MDT
Astronomical Twilight 6:02 AM MDT 7:58 PM MDT
Moon No Moon Rise 2:41 PM MDT (10/21)
Length of Visible Light 11h 57m
Length of Day
11h 05m
Waning Gibbous, 47% of the Moon is Illuminated
Oct 21
Waning Gibbous
Oct 27
New
Nov 4
First Quarter
Nov 12
Full
Nov 19
Last Quarter

Hourly Weather History & Observations

Time (MDT) Temp. Windchill Dew Point Humidity Pressure Visibility Wind Dir Wind Speed Gust Speed Precip Events Conditions
12:53 AM 28.0 °F - -0.0 °F 30% 30.01 in 10.0 mi Calm Calm - N/A   Clear
1:53 AM 27.0 °F - -0.0 °F 31% 30.00 in 10.0 mi Calm Calm - N/A   Clear
2:53 AM 21.9 °F 17.2 °F -0.0 °F 38% 30.03 in 10.0 mi SW 3.5 mph - N/A   Clear
3:53 AM 21.9 °F - 1.0 °F 40% 30.05 in 10.0 mi Calm Calm - N/A   Clear
4:53 AM 21.0 °F - 1.0 °F 42% 30.05 in 10.0 mi Calm Calm - N/A   Clear
5:53 AM 21.0 °F - 1.0 °F 42% 30.07 in 10.0 mi Calm Calm - N/A   Clear
6:53 AM 19.0 °F - 1.0 °F 46% 30.12 in 10.0 mi Calm Calm - N/A   Clear
7:53 AM 19.0 °F - 1.0 °F 46% 30.17 in 10.0 mi Calm Calm - N/A   Clear
8:53 AM 30.0 °F - 1.9 °F 30% 30.16 in 10.0 mi Calm Calm - N/A   Clear
9:53 AM 37.0 °F - 3.0 °F 24% 30.15 in 10.0 mi Calm Calm - N/A   Clear
10:53 AM 50.0 °F - 8.1 °F 18% 30.09 in 10.0 mi Calm Calm - N/A   Clear
11:36 AM 55.0 °F - 10.9 °F 17% 30.21 in 10.0 mi West 8.1 mph 19.6 mph 0.00 in Rain Light Rain
11:53 AM 55.9 °F - 12.0 °F 18% 30.09 in 10.0 mi West 13.8 mph - 0.00 in   Clear
12:53 PM 57.0 °F - 10.0 °F 15% 30.07 in 10.0 mi WNW 10.4 mph - N/A   Clear
1:53 PM 59.0 °F - 8.1 °F 13% 30.06 in 10.0 mi NW 9.2 mph - N/A   Clear
2:53 PM 60.1 °F - 7.0 °F 12% 30.05 in 10.0 mi West 10.4 mph - N/A   Clear
3:53 PM 59.0 °F - 7.0 °F 13% 30.06 in 10.0 mi WNW 12.7 mph 21.9 mph N/A   Clear
4:53 PM 59.0 °F - 6.1 °F 12% 30.09 in 10.0 mi WNW 10.4 mph - N/A   Clear
6:53 PM 51.1 °F - 9.0 °F 18% 30.17 in 10.0 mi NNW 4.6 mph - N/A   Clear
7:53 PM 46.9 °F - 9.0 °F 21% 30.22 in 10.0 mi NNE 5.8 mph - N/A   Clear
8:53 PM 45.0 °F 43.5 °F 8.1 °F 22% 30.21 in 10.0 mi North 3.5 mph - N/A   Clear
9:53 PM 39.0 °F 36.8 °F 8.1 °F 28% 30.23 in 10.0 mi SSW 3.5 mph - N/A   Clear
10:53 PM 34.0 °F 29.8 °F 7.0 °F 32% 30.21 in 10.0 mi NE 4.6 mph - N/A   Clear
11:53 PM 32.0 °F - 7.0 °F 35% 30.20 in 10.0 mi Calm Calm - N/A   Clear